Overview Statistics Trail Chart Weather Telemetry Raw packets
 

This is the latest recevied weather packets stored in our database for station/object K5MGY. If no packets are shown the sender has not sent any weather packets the latest 10 day(s).

<< 101 102 103 104 105 106 107 >>
Time Temp. Humidity Pressure Rain* Wind** Luminosity Snow
1787847474 36.11° C 49% 1040.1 hPa 0 mm - 532 W/m² -
1787847169 36.11° C 49% 1040.2 hPa 0 mm - 522 W/m² -
1787846866 35.56° C 50% 1040 hPa 0 mm - 512 W/m² -
1787846566 35° C 52% 1040.2 hPa 0 mm - 494 W/m² -
1787846261 35° C 52% 1040.2 hPa 0 mm - 471 W/m² -
1787845957 35° C 53% 1040 hPa 0 mm - 464 W/m² -
1787845653 34.44° C 55% 1039.9 hPa 0 mm - 456 W/m² -
1787845352 35° C 54% 1040 hPa 0 mm - 447 W/m² -
1787845048 35° C 54% 1039.9 hPa 0 mm - 424 W/m² -
1787844744 33.89° C 56% 1039.8 hPa 0 mm - 422 W/m² -
1787844442 33.33° C 56% 1039.9 hPa 0 mm - 410 W/m² -
1787844138 32.78° C 60% 1039.8 hPa 0 mm - 397 W/m² -
1787843838 32.78° C 60% 1039.8 hPa 0 mm - 385 W/m² -
1787843533 32.22° C 60% 1039.6 hPa 0 mm - 105 W/m² -
1787843230 32.78° C 60% 1039.4 hPa 0 mm - 76 W/m² -
1787842930 32.78° C 59% 1039.6 hPa 0 mm - 59 W/m² -
1787842629 32.78° C 60% 1039.5 hPa 0 mm - 59 W/m² -
1787842324 32.22° C 61% 1039.3 hPa 0 mm - 138 W/m² -
1787842019 32.22° C 61% 1039.7 hPa 0 mm - 166 W/m² -
1787841715 32.22° C 60% 1039.6 hPa 0 mm - 62 W/m² -
1787841414 32.22° C 61% 1039.7 hPa 0 mm - 139 W/m² -
1787841109 31.67° C 63% 1039.6 hPa 0 mm - 252 W/m² -
1787840804 31.11° C 64% 1039.6 hPa 0 mm - 236 W/m² -
1787840499 30.56° C 64% 1039.7 hPa 0 mm - 222 W/m² -
1787840195 30.56° C 64% 1039.5 hPa 0 mm - 205 W/m² -

* Rain latest hour (hover to see other rain measurements)
** Current wind speed in m/s (hover to see current wind gust speed)